Location: Il Ritiro
(43.4167°N, 13.1333°E)
Time: 07:34:39
(UTC+00:00)

Cosmos 371 Rocket - Pass Details

Date: 05 July 2020
Orbit: 684 x 699 km, 74.0° (Epoch: 05 August)

Event Time Altitude Azimuth Distance (km) Brightness Sun altitude
Rises 23:43:51 0° 330° (NNW) 3,080 7.4 -23.5°
Reaches altitude 10° 23:46:22 10° 320° (NW) 2,156 6.3 -23.5°
Enters shadow 23:50:24 31° 264° (W) 1,206 4.3 -23.3°
